Wind_Speed
87 89 90 89 85 76 71 70 71 66 64 58 52 52 55 51 48 49 48 47 46 45 44 43 41 38 39 42 44 44 42 37 36 36 38 35 33 35 33 33 32 32 26 24 24 26 28 28 28
87 88 92 92 86 78 74 77 75 69 65 60 54 55 55 52 53 53 49 49 49 47 43 43 42 39 38 35 37 38 37 35 33 34 36 36 34 33 33 33 33 31 29 26 25 27 27 27 28
91 88 89 94 89 81 80 81 74 71 67 63 58 57 56 55 54 55 51 49 47 45 43 42 41 38 37 35 32 32 34 34 33 35 35 36 33 32 32 30 31 29 26 25 25 27 26 27 26
92 91 90 88 87 86 87 84 80 76 71 67 62 60 57 59 56 57 53 49 46 44 43 41 41 40 38 36 34 34 33 33 34 33 32 30 30 30 29 31 28 27 25 24 26 27 26 28 28
92 93 91 86 82 91 92 90 86 80 74 70 65 62 59 61 58 58 56 51 47 44 43 42 41 38 36 35 33 34 34 34 33 31 28 26 26 26 26 26 27 26 26 25 26 27 28 30 34
88 95 90 83 80 91 97 95 89 84 79 74 70 65 62 61 61 60 59 54 49 47 43 43 40 37 35 33 33 33 34 34 33 30 27 26 25 26 25 26 27 27 26 25 26 30 34 36 37
82 91 91 84 87 96 99 99 90 85 82 78 72 66 65 64 63 62 60 55 51 48 44 43 39 37 36 36 36 34 34 33 31 29 27 27 26 26 27 27 27 26 26 28 32 34 36 38 40
82 85 90 89 89 93 103 100 92 88 85 80 76 69 66 67 67 65 62 58 56 52 48 44 42 39 38 37 37 37 35 34 31 29 30 29 29 28 27 28 27 29 31 33 34 36 39 41 43
84 84 84 87 91 97 98 102 100 96 90 82 76 72 69 70 70 68 64 61 59 56 52 48 46 43 41 40 39 37 35 34 33 33 32 32 32 31 31 32 33 34 36 37 38 40 42 44 46
83 81 81 88 94 102 97 99 105 101 93 86 82 75 71 73 72 70 67 66 62 60 57 53 49 46 44 42 42 40 37 36 36 36 35 35 35 35 36 36 37 39 39 40 42 43 46 48 50
86 82 87 88 95 102 102 102 103 98 96 91 88 83 72 74 74 74 72 70 65 61 61 58 54 51 49 47 46 44 42 40 40 41 41 39 39 39 39 39 41 42 43 44 46 49 52 54 55
89 90 88 90 92 103 105 101 98 96 100 97 93 87 73 72 77 76 75 73 70 68 65 63 60 58 55 52 51 49 47 45 44 44 44 43 43 43 43 44 45 47 48 50 51 54 55 57 59
94 95 92 91 93 99 104 102 102 99 100 101 97 92 85 71 73 76 76 74 72 71 67 67 65 63 59 57 55 53 53 50 48 48 47 47 47 47 48 49 51 52 53 55 56 58 59 61 63
95 100 98 95 95 98 102 100 101 102 99 104 101 96 92 86 74 78 79 77 78 75 73 68 67 63 63 61 58 57 56 55 53 52 52 51 51 52 55 55 55 56 58 59 61 62 63 65 68
90 97 99 98 96 97 101 97 98 106 103 104 105 101 96 91 83 79 80 79 76 77 74 72 69 64 61 62 60 58 58 58 57 57 57 57 56 57 59 60 60 60 62 62 65 66 68 70 73
84 91 93 93 95 98 99 91 101 107 104 104 108 104 101 95 94 86 87 85 72 77 78 78 75 71 70 67 64 63 62 62 62 62 62 62 61 62 62 64 63 63 65 67 69 70 72 74 76
76 81 85 91 93 99 96 98 103 107 106 109 108 109 106 102 98 92 87 87 89 75 75 77 78 77 72 73 71 68 66 66 66 66 66 65 65 66 65 63 66 69 70 71 73 74 75 77 75
66 74 81 87 92 95 96 103 105 107 109 110 110 112 110 106 102 99 92 91 90 87 78 79 76 77 77 77 76 72 71 72 70 69 63 63 65 66 69 71 73 74 74 75 77 78 78 77 77
72 77 81 86 88 91 96 102 106 106 114 113 112 112 114 109 106 104 101 92 87 89 86 82 80 80 76 75 74 74 71 67 69 71 70 73 75 75 76 76 77 77 79 79 79 79 77 80 82
73 74 78 83 86 88 96 102 109 108 113 112 115 113 114 113 108 104 100 96 91 88 92 91 89 87 86 85 83 81 80 80 79 77 78 78 77 78 78 79 80 80 79 80 78 79 80 82 84
69 71 77 80 83 87 95 99 107 106 111 112 115 113 111 111 109 105 102 99 95 93 91 90 92 91 88 87 87 86 85 84 84 82 81 79 80 79 79 79 80 80 80 79 79 82 83 85 90
69 72 72 74 78 82 89 94 101 109 110 112 115 114 114 110 110 107 104 102 99 97 93 91 90 91 91 90 88 87 86 86 86 84 83 82 81 81 81 82 83 82 82 83 86 87 91 93 94
68 70 70 74 78 81 86 92 99 107 109 107 112 113 111 110 110 110 108 104 101 98 95 93 92 91 91 91 90 89 88 87 87 86 85 85 85 85 85 85 85 85 85 85 88 91 93 95 98
69 68 70 72 77 78 85 89 98 103 107 111 115 113 112 112 110 110 110 108 105 102 101 99 97 94 93 92 91 91 90 90 89 88 87 87 88 88 88 87 87 87 87 90 90 92 95 98 100
68 67 69 68 70 75 80 83 96 100 105 109 110 110 110 109 106 106 108 110 109 107 104 103 101 98 96 94 94 93 92 92 93 92 90 89 87 87 88 87 88 89 90 90 93 96 99 100 104
62 60 60 59 63 70 74 78 88 95 101 106 108 110 110 106 104 104 106 110 111 112 111 108 105 103 101 99 97 96 96 95 95 95 95 94 93 93 93 93 93 95 97 99 99 101 103 105 106
58 57 56 59 60 64 67 76 84 90 93 97 102 104 107 106 106 105 105 109 111 112 112 112 110 107 105 104 103 101 100 98 96 95 96 96 96 96 97 98 98 100 100 103 103 106 106 109 110
53 57 56 56 58 60 64 70 76 84 86 89 91 95 100 105 107 106 107 106 107 108 110 112 113 112 111 110 109 107 105 104 101 99 99 98 97 97 98 99 100 102 104 105 107 107 109 106 105
50 51 50 53 52 55 58 62 68 74 77 80 84 87 92 97 102 103 106 105 105 105 106 107 109 111 113 113 112 112 110 109 108 105 105 105 104 104 103 105 107 106 108 108 107 108 104 106 105
48 49 49 46 50 52 52 54 60 63 72 75 79 81 84 88 91 93 98 100 103 104 106 106 105 105 106 109 113 114 113 111 112 110 110 110 110 110 110 110 109 111 106 106 101 103 103 107 103
Wind_Direction
225 223 223 222 223 222 222 224 226 227 230 228 227 224 225 222 224 225 224 223 224 227 228 230 233 236 239 244 248 250 251 254 251 250 254 260 264 269 270 277 277 284 284 284 287 290 291 292 292
225 223 222 223 221 221 222 223 224 226 230 229 226 225 223 220 221 225 225 226 224 224 226 228 232 235 239 242 245 249 251 251 248 247 254 257 260 259 268 271 274 277 279 283 286 287 288 289 292
224 224 222 221 221 219 223 222 224 225 227 228 228 225 224 217 221 226 226 227 226 224 226 229 232 234 237 240 244 247 249 250 249 249 249 251 255 262 265 265 269 275 281 279 282 284 286 290 293
223 223 223 220 219 219 223 223 221 222 224 228 228 226 226 220 219 227 228 228 227 227 227 230 233 235 238 241 242 245 245 244 246 246 247 250 257 261 262 265 270 275 275 276 282 282 287 288 293
223 223 222 219 217 219 223 222 221 221 222 225 226 228 225 226 219 225 229 227 228 228 228 230 233 235 239 241 244 245 244 244 243 243 245 250 257 260 264 266 267 268 270 275 278 285 291 296 299
223 223 221 219 217 219 222 223 220 219 221 222 223 224 225 226 222 222 229 228 228 229 227 231 234 236 239 241 241 240 239 240 240 239 243 247 252 257 261 262 263 265 271 280 286 293 297 299 302
221 222 221 218 217 220 221 223 221 221 221 221 223 223 224 225 225 226 226 230 229 231 230 232 234 235 238 238 237 237 237 237 238 241 244 246 250 255 260 263 266 270 278 286 289 293 296 298 299
220 221 219 217 218 220 221 222 221 221 222 221 222 221 223 225 225 226 227 228 230 230 232 233 234 234 236 236 236 237 239 238 239 243 246 247 252 257 262 264 271 277 281 286 290 295 297 299 301
220 219 218 217 217 223 222 221 221 219 219 220 222 221 220 225 227 227 227 229 230 230 230 232 233 234 236 237 236 237 239 244 245 247 248 250 254 257 264 269 274 278 282 285 290 293 297 300 302
225 219 217 218 218 223 221 222 222 220 219 218 219 220 219 222 227 228 228 229 231 231 232 233 235 235 237 238 239 240 240 244 247 250 255 257 260 263 266 270 275 278 281 283 287 290 296 301 302
225 222 217 217 217 222 220 222 224 222 219 219 218 217 216 222 224 228 229 230 231 233 234 233 235 236 237 239 241 243 244 246 249 250 252 255 259 264 268 271 272 274 279 284 288 293 297 299 300
225 224 220 216 217 221 220 220 223 223 220 219 219 218 212 220 223 226 229 231 231 232 234 235 235 236 238 240 242 245 247 250 253 255 256 257 260 264 267 268 271 275 279 285 288 292 295 298 301
221 225 223 218 216 220 222 218 222 223 221 219 218 218 216 215 222 226 228 230 232 234 235 237 237 238 238 241 243 245 249 251 254 257 260 262 263 267 269 271 273 277 283 288 292 295 297 300 302
220 222 223 221 217 219 222 219 220 224 221 219 217 217 217 215 218 222 226 229 230 232 236 237 239 240 239 240 242 244 247 251 253 257 262 265 268 270 273 275 278 282 286 289 292 295 298 300 301
218 221 222 222 219 219 221 219 218 222 223 219 217 217 217 216 218 221 222 227 231 232 233 235 237 237 237 239 242 245 247 250 254 258 263 266 269 271 274 275 279 283 285 288 291 294 297 299 301
218 220 221 222 220 219 220 218 218 221 222 222 217 218 217 216 217 221 224 222 226 230 234 236 237 238 243 244 246 248 250 253 255 259 261 265 267 269 271 274 277 282 285 288 292 295 297 299 302
216 219 219 221 219 218 218 219 219 218 221 224 218 218 219 218 219 219 223 226 224 225 229 235 238 240 243 246 248 250 252 253 256 259 262 265 267 269 272 276 279 282 285 288 291 294 296 299 302
215 219 218 219 218 217 215 219 218 217 219 223 223 217 221 220 220 222 223 224 226 228 229 232 235 239 241 246 247 251 253 255 258 259 262 264 266 270 274 277 279 282 286 289 293 293 298 300 300
213 215 215 217 218 216 214 216 217 216 219 221 225 221 218 222 221 223 224 225 227 228 232 235 235 238 240 242 246 250 251 254 258 261 264 267 270 273 275 277 281 283 287 291 293 296 296 297 298
213 216 216 217 217 214 215 214 216 216 219 220 225 224 222 220 223 223 226 228 229 230 230 233 238 239 241 245 248 251 254 258 260 261 265 268 270 273 276 279 282 285 288 291 292 291 295 296 298
214 216 217 217 216 216 216 215 216 215 221 221 226 227 226 221 223 225 226 228 229 231 234 234 236 239 242 245 247 250 253 256 259 263 266 269 271 274 275 277 281 284 286 288 289 291 294 294 296
216 217 218 220 218 217 218 216 216 217 219 221 224 227 229 226 224 225 228 228 230 232 234 236 237 238 240 243 246 249 252 255 258 261 264 267 272 275 277 280 281 283 284 286 288 290 292 293 296
216 218 215 219 218 217 217 216 216 220 221 222 225 228 230 230 227 226 227 230 232 234 236 238 239 240 242 242 244 247 250 254 257 260 263 266 268 271 274 276 278 280 283 285 287 290 292 295 296
217 219 217 217 220 217 217 216 218 220 222 223 225 226 230 231 230 228 229 229 231 234 236 237 239 241 243 245 247 248 250 253 256 259 261 264 268 271 273 276 278 281 283 286 289 291 293 295 296
218 218 219 218 221 220 220 218 222 220 224 226 228 229 229 232 233 233 232 232 233 234 235 238 240 242 244 245 248 250 252 254 256 259 262 265 267 269 272 275 277 280 283 286 288 291 293 295 297
221 221 222 222 224 224 222 220 224 224 225 227 229 231 231 232 234 235 235 236 236 236 237 238 240 242 245 247 249 250 252 254 257 259 262 264 266 269 272 275 278 280 283 286 289 290 291 295 296
221 221 223 224 223 225 224 224 225 227 228 230 231 232 234 234 234 235 236 236 237 238 239 240 241 243 245 246 249 251 253 255 257 260 262 265 267 270 273 276 278 280 283 284 287 288 292 294 297
220 222 224 226 224 224 224 226 226 230 230 232 233 234 234 236 235 236 238 238 239 240 240 241 243 244 245 247 248 251 253 255 258 259 262 264 268 271 273 276 279 281 284 286 288 291 293 297 297
220 226 227 228 229 230 230 231 229 230 233 234 234 235 235 236 238 240 240 241 242 243 244 245 246 247 247 248 250 252 254 256 258 260 263 265 268 271 274 276 279 282 284 287 289 292 294 297 297
218 222 225 226 231 233 232 236 234 229 231 234 235 235 236 237 237 236 240 242 243 244 245 247 248 249 250 252 252 253 255 256 259 261 263 265 268 271 273 275 279 280 284 287 289 292 294 296 296
Height
10734 10745 10756 10766 10776 10793 10803 10807 10808 10817 10824 10832 10842 10852 10857 10863 10866 10870 10872 10876 10882 10887 10891 10895 10898 10901 10904 10907 10910 10913 10915 10917 10920 10922 10923 10924 10925 10927 10927 10928 10928 10928 10928 10928 10928 10928 10927 10927 10927
10720 10731 10742 10754 10769 10786 10793 10792 10798 10810 10819 10827 10834 10844 10851 10856 10859 10862 10866 10871 10877 10882 10886 10890 10893 10897 10900 10903 10906 10908 10910 10912 10915 10917 10919 10920 10921 10922 10922 10923 10924 10925 10925 10926 10925 10924 10923 10923 10923
10706 10719 10728 10738 10757 10779 10782 10782 10796 10804 10811 10819 10827 10834 10843 10848 10852 10857 10862 10867 10873 10878 10881 10885 10889 10893 10896 10900 10902 10904 10905 10908 10910 10912 10914 10915 10916 10917 10918 10919 10920 10921 10921 10922 10921 10920 10919 10918 10919
10692 10703 10713 10726 10754 10764 10765 10772 10781 10791 10800 10810 10817 10825 10835 10842 10846 10849 10857 10863 10868 10873 10877 10881 10886 10890 10892 10895 10897 10899 10901 10903 10906 10908 10909 10910 10911 10912 10913 10915 10916 10917 10918 10917 10916 10915 10915 10915 10914
10676 10688 10699 10722 10742 10751 10749 10757 10769 10779 10790 10802 10811 10820 10828 10836 10842 10844 10849 10856 10863 10868 10873 10877 10880 10884 10887 10890 10892 10894 10896 10899 10901 10903 10904 10905 10907 10908 10909 10910 10911 10912 10913 10912 10912 10911 10910 10910 10909
10662 10674 10693 10719 10735 10736 10733 10741 10757 10770 10780 10790 10799 10810 10820 10829 10836 10839 10842 10851 10858 10863 10868 10872 10876 10879 10882 10885 10887 10889 10892 10894 10896 10898 10900 10901 10902 10903 10904 10906 10907 10908 10908 10908 10907 10907 10906 10905 10903
10651 10661 10685 10708 10715 10714 10720 10730 10752 10765 10772 10781 10796 10807 10814 10819 10829 10834 10839 10846 10853 10858 10862 10866 10870 10874 10876 10880 10882 10884 10887 10889 10891 10893 10895 10897 10898 10899 10900 10901 10903 10903 10903 10903 10903 10901 10900 10898 10897
10637 10648 10666 10688 10700 10702 10701 10720 10742 10752 10761 10774 10785 10798 10806 10810 10818 10826 10834 10840 10845 10851 10856 10860 10864 10867 10870 10873 10877 10879 10882 10884 10887 10889 10891 10892 10893 10894 10895 10897 10898 10898 10898 10898 10897 10896 10894 10892 10890
10621 10636 10658 10677 10683 10681 10694 10705 10720 10733 10747 10767 10781 10791 10798 10801 10809 10817 10827 10834 10838 10843 10848 10853 10857 10860 10864 10867 10871 10874 10877 10880 10882 10884 10886 10888 10888 10889 10891 10892 10892 10892 10892 10892 10890 10889 10887 10885 10883
10610 10631 10648 10655 10663 10656 10685 10695 10700 10718 10739 10753 10766 10780 10789 10791 10800 10810 10817 10824 10831 10836 10842 10846 10850 10854 10858 10861 10865 10868 10872 10876 10877 10879 10881 10882 10883 10884 10886 10886 10886 10886 10886 10885 10883 10882 10880 10877 10875
10598 10614 10623 10635 10646 10648 10667 10676 10687 10712 10732 10741 10751 10763 10774 10785 10791 10799 10807 10814 10823 10831 10835 10838 10843 10847 10851 10855 10858 10862 10866 10869 10871 10872 10874 10877 10878 10879 10880 10880 10880 10880 10879 10877 10875 10873 10872 10870 10867
10580 10589 10604 10619 10633 10636 10647 10668 10683 10699 10713 10724 10740 10752 10764 10776 10783 10790 10797 10805 10813 10819 10825 10831 10835 10839 10844 10848 10851 10855 10858 10861 10864 10865 10867 10870 10871 10872 10872 10873 10873 10872 10871 10869 10868 10866 10864 10862 10858
10560 10571 10588 10605 10619 10623 10633 10657 10663 10683 10695 10712 10728 10742 10756 10764 10774 10782 10788 10797 10803 10809 10816 10822 10827 10831 10836 10840 10844 10848 10851 10853 10856 10857 10859 10861 10863 10863 10863 10864 10864 10863 10862 10860 10858 10856 10854 10852 10849
10542 10551 10568 10586 10602 10611 10618 10640 10658 10666 10683 10695 10714 10729 10740 10753 10760 10767 10776 10782 10789 10796 10804 10812 10818 10824 10828 10832 10837 10840 10843 10845 10847 10849 10851 10852 10854 10855 10854 10854 10854 10854 10853 10851 10849 10847 10845 10842 10839
10526 10536 10551 10571 10588 10600 10606 10630 10653 10649 10667 10681 10698 10713 10727 10741 10749 10754 10761 10772 10780 10784 10794 10802 10809 10815 10819 10825 10828 10831 10834 10837 10839 10841 10842 10843 10846 10846 10845 10845 10845 10845 10843 10841 10840 10838 10835 10832 10828
10512 10525 10544 10560 10574 10585 10597 10630 10631 10639 10654 10665 10684 10698 10711 10724 10732 10739 10747 10757 10766 10774 10784 10791 10798 10805 10811 10816 10820 10823 10826 10829 10830 10832 10833 10836 10837 10837 10836 10836 10837 10835 10833 10831 10829 10827 10823 10820 10816
10504 10520 10535 10544 10557 10567 10591 10604 10610 10627 10638 10647 10668 10680 10694 10708 10717 10728 10736 10745 10754 10764 10772 10781 10787 10794 10800 10806 10809 10814 10816 10818 10820 10823 10825 10827 10826 10825 10826 10826 10826 10824 10823 10821 10818 10815 10812 10808 10805
10503 10508 10519 10526 10536 10555 10575 10580 10593 10615 10622 10633 10647 10666 10678 10694 10706 10715 10723 10731 10744 10755 10765 10770 10778 10782 10788 10793 10798 10802 10805 10808 10811 10813 10815 10816 10814 10815 10816 10816 10815 10813 10811 10809 10806 10802 10799 10794 10793
10477 10484 10500 10508 10523 10543 10555 10564 10580 10600 10606 10616 10629 10647 10665 10679 10690 10700 10711 10723 10736 10746 10755 10761 10765 10769 10775 10780 10786 10790 10795 10799 10800 10802 10804 10804 10804 10805 10805 10803 10801 10801 10799 10796 10792 10788 10785 10782 10779
10466 10477 10489 10498 10511 10526 10536 10549 10557 10579 10592 10608 10615 10627 10646 10664 10677 10691 10704 10716 10727 10734 10740 10747 10751 10759 10765 10770 10775 10781 10785 10787 10788 10791 10792 10792 10791 10791 10792 10790 10789 10788 10787 10784 10780 10776 10773 10767 10763
10461 10469 10476 10489 10502 10514 10524 10537 10551 10575 10584 10597 10604 10618 10634 10656 10669 10681 10692 10703 10712 10719 10725 10733 10739 10746 10753 10758 10764 10769 10773 10775 10776 10779 10782 10781 10779 10780 10779 10779 10778 10776 10775 10771 10766 10763 10761 10755 10750
10451 10457 10471 10485 10498 10508 10520 10536 10551 10557 10568 10581 10591 10606 10617 10636 10656 10668 10677 10687 10698 10706 10713 10719 10727 10734 10741 10746 10752 10756 10760 10761 10762 10766 10768 10768 10767 10767 10767 10767 10765 10764 10762 10759 10755 10750 10746 10742 10738
10442 10450 10463 10475 10486 10497 10512 10526 10541 10547 10558 10578 10587 10592 10604 10618 10637 10650 10661 10674 10684 10693 10702 10708 10713 10719 10726 10733 10739 10744 10748 10749 10750 10753 10755 10755 10756 10757 10756 10754 10753 10752 10751 10746 10741 10736 10730 10725 10721
10434 10444 10456 10467 10477 10492 10500 10520 10524 10538 10548 10554 10560 10576 10587 10599 10618 10633 10646 10657 10666 10675 10682 10690 10698 10704 10711 10717 10724 10730 10735 10738 10740 10741 10743 10743 10743 10743 10742 10742 10739 10737 10734 10731 10727 10720 10715 10711 10703
10426 10437 10448 10461 10477 10487 10497 10514 10509 10528 10533 10544 10554 10567 10579 10589 10606 10622 10632 10641 10649 10659 10668 10676 10682 10690 10697 10703 10708 10714 10718 10722 10725 10727 10729 10730 10730 10729 10730 10729 10727 10725 10722 10717 10712 10707 10700 10695 10686
10426 10437 10448 10461 10470 10480 10492 10508 10504 10515 10525 10532 10542 10551 10564 10581 10594 10604 10615 10625 10633 10642 10651 10659 10668 10676 10683 10688 10693 10697 10702 10706 10709 10711 10712 10714 10714 10714 10713 10714 10711 10708 10707 10705 10699 10694 10687 10680 10673
10421 10433 10442 10450 10460 10470 10485 10489 10498 10504 10515 10521 10532 10542 10552 10566 10577 10586 10595 10602 10614 10625 10634 10644 10653 10661 10668 10673 10678 10681 10685 10690 10694 10697 10698 10699 10699 10699 10697 10696 10695 10693 10690 10688 10684 10678 10673 10665 10656
10417 10423 10433 10443 10452 10462 10472 10477 10486 10492 10505 10514 10522 10530 10539 10550 10561 10571 10578 10588 10599 10608 10617 10626 10635 10644 10650 10656 10660 10665 10670 10674 10678 10682 10683 10683 10684 10684 10682 10679 10677 10674 10671 10666 10662 10657 10651 10645 10636
10410 10419 10429 10435 10445 10453 10461 10467 10476 10485 10493 10502 10509 10516 10525 10533 10542 10556 10565 10576 10586 10593 10601 10610 10617 10626 10632 10638 10645 10649 10654 10658 10660 10665 10667 10669 10669 10668 10666 10663 10660 10657 10653 10650 10643 10638 10631 10624 10616
10401 10410 10421 10431 10437 10443 10451 10456 10461 10474 10477 10484 10491 10499 10507 10515 10527 10540 10548 10559 10568 10576 10582 10590 10599 10606 10613 10620 10626 10630 10635 10641 10643 10648 10649 10652 10652 10652 10650 10646 10645 10641 10638 10633 10626 10619 10613 10606 10597